Tracking 32427 objects as of 11-Dec-2025
HD Live streaming from Space Station
objects crossing your sky now

METEOR 2-20 DEB

Track METEOR 2-20 DEB now!
10-day predictions


NORAD ID: 59999
Int'l Code: 1990-086J
Perigee: 913.0 km
Apogee: 936.5 km
Inclination: 82.6 °
Period: 103.4 minutes
Semi major axis: 7295 km
RCS: Unknown
Launch date: September 28, 1990
Source: Commonwealth of Independent States (former USSR) (CIS)
Launch site: PLESETSK MISSILE AND SPACE COMPLEX (PKMTR)

Note: This is SATELLITE DEBRIS
Your satellite tracking list
Your tracking list is empty




NASA's NSSDC Master Catalog

Two Line Element Set (TLE):
1 59999U 90086J   25342.75590753  .00002369  00000-0  18058-2 0  9995
2 59999  82.5706 342.7624 0016144 105.5052 254.7897 13.93148612474200
Source of the keplerian elements: AFSPC